Dewpoint
42 43 42 42 43 41 39 37 35 32 31 31 32 32 32 33 36 35 33 38 37 36 34 33 31 29 28 28 29 30 31 32 32 32 33 33 34 33
43 42 42 42 42 41 37 37 36 34 31 31 30 31 30 27 32 32 30 35 35 36 36 36 35 29 27 27 28 28 30 31 31 31 31 31 33 34
44 44 43 43 41 38 38 37 35 34 31 31 32 30 31 32 28 32 33 29 29 35 35 35 35 32 29 28 27 28 29 30 30 30 30 30 31 32
43 44 42 40 39 39 38 36 35 34 32 30 30 30 29 29 29 29 28 22 24 30 33 33 33 32 32 31 30 29 29 29 30 30 30 30 31 31
43 42 41 41 40 39 38 36 35 33 33 31 30 31 30 29 28 28 26 26 25 30 33 33 33 33 32 32 31 32 32 30 30 30 30 30 31 31
41 41 41 41 41 39 37 36 35 35 34 31 30 29 29 28 28 24 23 25 23 18 24 26 30 30 32 34 33 33 33 33 32 31 32 32 32 30
41 41 40 40 40 38 36 35 34 34 33 32 29 28 27 27 25 24 23 22 22 22 20 21 22 23 23 27 28 32 32 34 34 32 29 31 31 31
39 39 39 39 38 37 36 35 33 32 32 32 31 29 27 27 26 25 23 21 19 22 19 20 21 20 21 23 28 29 29 31 31 30 29 29 31 32
39 38 38 30 32 32 32 33 34 34 34 32 31 30 29 29 30 27 25 23 21 21 19 19 21 21 23 17 28 29 29 31 31 32 32 32 32 32
37 34 32 31 32 32 31 30 30 31 33 33 33 33 32 32 32 29 27 25 21 21 20 18 21 21 22 23 28 28 29 30 30 31 31 32 32 32
32 32 32 32 33 34 32 31 30 30 30 33 35 35 33 32 30 28 26 25 23 20 21 20 20 20 21 21 22 27 29 30 30 30 30 31 32 32
31 30 31 31 32 33 32 31 31 32 34 34 31 32 32 31 30 29 26 27 26 23 22 21 20 19 18 19 22 23 24 27 29 30 30 30 31 30
27 26 27 29 29 28 27 24 26 29 31 32 33 32 33 34 31 29 28 27 25 24 24 25 21 20 19 20 21 23 25 25 26 26 29 31 32 32
23 24 25 27 27 27 27 27 28 29 31 29 29 32 32 34 34 30 28 26 26 25 25 25 24 22 19 19 19 22 22 24 26 24 27 31 32 32
23 24 24 25 26 26 28 28 26 26 27 28 28 29 31 33 35 34 32 29 28 29 26 25 25 23 22 20 20 20 21 22 24 26 28 27 27 32
22 21 22 24 25 26 26 27 30 30 30 29 30 32 32 30 31 33 31 31 30 29 26 25 25 24 22 22 21 21 22 21 24 26 26 26 30 31
19 21 22 22 21 21 21 23 24 25 25 31 30 31 29 27 31 31 31 30 28 25 25 26 26 26 24 23 21 22 22 24 26 25 26 26 31 27
20 19 18 18 19 19 19 20 21 21 23 24 31 30 28 29 30 32 31 28 27 26 25 24 24 23 23 23 25 23 25 25 23 26 27 28 28 28
17 17 15 16 16 17 18 18 19 20 20 22 28 27 28 27 27 29 30 29 28 27 26 24 23 20 15 13 23 27 22 24 26 23 24 26 27 30
17 15 15 15 15 16 15 16 17 18 18 19 22 27 23 26 24 28 28 28 26 26 24 22 22 21 18 15 13 18 27 21 24 24 22 26 30 31
14 13 14 14 14 14 14 15 16 17 17 19 20 22 28 28 25 25 28 28 27 28 25 21 22 19 21 19 11 15 22 29 26 22 21 21 23 25
14 13 13 13 13 13 13 13 14 14 14 17 18 19 21 24 25 22 26 29 27 27 26 23 22 22 21 19 17 12 23 26 27 27 26 24 19 16
11 13 12 12 12 12 12 11 12 12 12 15 15 17 17 17 20 24 26 29 28 26 23 21 22 21 20 19 18 17 20 25 27 26 24 27 26 26
Lifted_Index
8 8 8 8 8 8 8 9 9 8 8 9 10 10 10 10 10 10 10 10 10 10 10 9 9 8 8 8 8 9 8 8 8 8 7 7 7 6
9 8 8 8 8 8 9 9 9 9 9 9 10 10 10 10 10 10 10 10 9 9 9 8 8 8 8 8 9 9 8 8 8 8 8 7 7 7
9 9 8 8 8 8 9 9 10 9 9 10 10 10 10 10 9 9 9 9 8 7 7 7 7 7 8 8 8 8 8 8 8 8 8 8 7 7
9 8 8 9 9 9 9 9 9 9 9 10 10 10 10 9 9 8 8 7 7 6 6 6 6 7 8 8 8 7 7 7 7 8 8 8 8 8
9 9 9 9 9 9 9 9 9 9 9 9 10 10 9 9 8 7 7 6 6 6 6 6 6 7 7 7 6 6 6 6 7 7 7 8 8 8
9 10 10 10 9 9 9 9 9 9 9 9 9 9 8 7 7 6 6 5 5 5 5 6 6 6 6 6 5 5 5 5 6 6 7 7 7 8
10 10 10 10 10 10 9 9 9 9 9 8 8 8 7 6 5 4 4 4 4 5 5 6 6 6 6 6 5 5 5 5 5 6 7 7 7 7
11 11 11 11 11 10 10 10 10 9 9 8 7 7 6 5 4 3 3 4 4 4 5 5 6 6 6 6 5 5 5 5 6 6 7 7 7 7
12 12 12 12 12 11 11 11 10 10 9 8 7 6 5 4 3 3 3 3 4 4 5 5 6 6 6 5 5 5 6 6 6 6 7 7 7 6
13 13 13 13 12 12 12 11 11 10 9 7 6 5 4 4 3 3 3 3 3 4 4 5 5 6 5 5 5 5 5 6 6 6 7 6 6 6
14 14 14 14 13 13 12 12 11 10 9 8 6 5 4 4 3 3 2 3 3 3 4 4 5 5 5 5 5 6 6 6 6 7 7 6 6 6
16 16 16 16 15 15 14 13 12 11 10 8 7 5 5 4 3 2 2 2 3 3 3 4 5 5 5 5 6 6 6 7 7 7 7 6 6 6
17 17 18 18 17 17 16 14 13 11 10 9 7 6 5 4 3 2 2 2 3 3 3 4 4 4 5 5 6 6 7 7 7 7 7 6 6 6
18 19 19 18 18 17 15 14 13 11 10 9 8 7 5 4 3 2 2 2 3 3 4 4 4 4 5 6 6 7 7 7 7 7 6 6 6 6
19 19 19 18 17 15 14 12 11 10 9 8 7 6 5 4 3 2 2 2 3 4 4 4 4 5 5 6 6 7 7 7 7 7 6 6 5 5
19 19 18 17 16 14 13 11 10 8 8 7 7 6 5 4 3 3 2 3 3 4 4 4 4 5 5 6 6 6 7 6 6 6 6 5 5 5
19 18 17 16 15 14 13 12 10 8 8 7 6 5 4 4 3 3 3 3 3 3 3 4 4 5 5 5 6 6 6 6 6 5 5 5 4 4
18 17 16 15 15 14 13 12 10 9 8 7 5 5 4 4 3 3 3 3 3 3 3 4 4 4 5 5 5 6 6 5 5 5 5 5 4 4
16 16 15 15 14 14 13 12 11 10 9 7 5 4 4 3 3 3 3 3 3 3 3 4 4 4 5 5 5 5 5 6 5 5 5 5 4 4
16 15 15 14 14 14 13 13 12 11 9 7 5 4 3 3 3 3 3 3 3 3 3 4 4 5 5 5 5 5 6 5 5 5 5 5 5 4
15 15 15 15 15 14 14 13 12 11 9 7 6 4 4 3 3 3 3 3 3 3 3 4 4 5 5 5 5 5 5 5 5 5 5 5 5 5
16 16 16 16 15 15 14 13 13 11 10 8 6 5 4 3 3 3 3 3 2 3 3 4 4 5 5 5 5 5 5 5 5 5 5 5 5 5
16 16 16 16 16 15 15 14 12 11 10 9 7 6 5 4 3 3 3 3 2 3 3 4 5 5 5 6 5 5 5 5 4 5 5 5 6 6